Regional Weather Roundup
Issued by NWS

Home | Current Version | Previous Version | Graphics & Text | Print | Product List | Glossary On
Versions: 1 2 3 4 5 6 7 8 9 10 11 12 13 14 15 16 17 18 19 20 21 22 23 24 25 26 27 28 29 30 31 32 33 34 35 36 37 38 39 40 41 42 43 44 45 46 47 48 49 50
000
ASUS43 KOAX 212010
RWRNE

WEATHER ROUNDUP FOR NEBRASKA
NATIONAL WEATHER SERVICE OMAHA NE
300 PM CDT THU SEP 21 2017

NOTES: SATELLITE DATA IS BEING USED TO AUGMENT CLOUD COVER ABOVE
       12000 FEET.
       "FAIR" INDICATES FEW OR NO CLOUDS BELOW 12,000 FEET WITH NO
       SIGNIFICANT WEATHER AND/OR OBSTRUCTIONS TO VISIBILITY.


NEZ001>004-019>022-054>056-212100-
NEBRASKA PANHANDLE

CITY           SKY/WX    TMP DP  RH WIND       PRES   REMARKS
SCOTTSBLUFF    SUNNY     84  46  26 E13       29.66F
ALLIANCE       SUNNY     84  40  21 S7        29.69F
CHADRON        SUNNY     90  29  11 W8        29.62F
GORDON         FAIR      85  45  24 SE6       29.67F
KIMBALL        SUNNY     87  32  14 E9        29.74S
SIDNEY         SUNNY     88  31  13 SW8       29.71F
$$

NEZ057>060-069>072-079>082-212100-
SOUTHWEST NEBRASKA

CITY           SKY/WX    TMP DP  RH WIND       PRES   REMARKS
NORTH PLATTE   SUNNY     91  47  21 SE14G24   29.67F
IMPERIAL       SUNNY     93  38  14 SE16G26   29.67F
LEXINGTON      SUNNY     93  52  24 S18       29.69F HX  90
MCCOOK         SUNNY     99  44  15 S21G30    29.65F HX  95
OGALLALA       SUNNY     91  37  15 S12G17    29.68F
$$

NEZ005>010-023>029-035>040-094-212100-
NORTH CENTRAL NEBRASKA

CITY           SKY/WX    TMP DP  RH WIND       PRES   REMARKS
VALENTINE      SUNNY     88  53  30 S17       29.65F
AINSWORTH      SUNNY     85  56  36 S17G24    29.67F
BROKEN BOW     SUNNY     92  52  25 S21G28    29.68F
O`NEILL        SUNNY     87  59  39 S17G28    29.69F
ORD            SUNNY     89  54  30 S14G26    29.67F
THEDFORD       SUNNY     87  50  27 S14G20    29.69F
$$

NEZ041-046>049-061>064-073>077-083>087-212100-
SOUTH CENTRAL NEBRASKA

CITY           SKY/WX    TMP DP  RH WIND       PRES   REMARKS
GRAND ISLAND   SUNNY     90  68  48 S22G29    29.71F HX  94
AURORA         SUNNY     90  68  47 S18G26    29.71F HX  94
HASTINGS       SUNNY     93  65  39 S20G26    29.72F HX  95
HEBRON         SUNNY     93  69  44 SE18G28   29.74F HX  98
HOLDREGE       SUNNY     92  54  27 S17G28    29.70F HX  90
KEARNEY        SUNNY     93  64  38 S21G30    29.70F HX  94
YORK           SUNNY     90  70  51 S17G30    29.73F HX  95
$$

NEZ011>018-030>034-042>045-212100-
NORTHEAST NEBRASKA

CITY           SKY/WX    TMP DP  RH WIND       PRES   REMARKS
NORFOLK        SUNNY     89  67  47 SE21G29   29.70F HX  92
ALBION         SUNNY     88  66  47 SE18      29.70F HX  90
BLAIR          MOSUNNY   89  72  57 SE17G26   29.76F HX  96
COLUMBUS       SUNNY     91  70  49 SE16G25   29.72F HX  96
FREMONT        MOSUNNY   90  70  51 SE17G26   29.74F HX  95
TEKAMAH        SUNNY     90  72  55 S18G25    29.73F HX  97
WAYNE          SUNNY     85  70  59 S23G30    29.71F HX  90
$$

NEZ050>053-065>068-078-088>093-212100-
SOUTHEAST NEBRASKA

CITY           SKY/WX    TMP DP  RH WIND       PRES   REMARKS
LINCOLN        SUNNY     93  70  46 S25G32    29.73F HX  99
OMAHA EPPLEY   MOSUNNY   91  72  53 S25       29.76F HX  98
BEATRICE       SUNNY     92  72  50 S20G29    29.75F HX 100
FALLS CITY     SUNNY     91  72  53 S20G30    29.80F HX  98
NEBRASKA CITY  MOSUNNY   91  73  55 S22G30    29.79F HX  98
PLATTSMOUTH    MOSUNNY   91  73  54 SE18G25   29.77F HX  98
$$

NEZ044-045-051>053-067-212100-
OMAHA AREA

CITY           SKY/WX    TMP DP  RH WIND       PRES   REMARKS
OMAHA EPPLEY   MOSUNNY   91  72  53 S25       29.76F HX  98
BLAIR          MOSUNNY   89  72  57 SE17G26   29.76F HX  96
FREMONT        MOSUNNY   90  70  51 SE17G26   29.74F HX  95
MILLARD        MOSUNNY   91  74  55 SE21G28   29.75F HX 100
OFFUTT AFB     SUNNY     91  73  54 SE21      29.75F HX  99
PLATTSMOUTH    MOSUNNY   91  73  54 SE18G25   29.77F HX  98
WAHOO          FAIR      91  69  48 SE22G29   29.74F HX  95
$$




USA.gov is the U.S. government's official web portal to all federal, state and local government web resources and services.